Location: Julian California
(33.0790°N, 116.6010°W)
Time: 06:12:14
(UTC-07:00)

Cosmos 1980 Rocket - Pass Details

Date: 19 May 2017
Orbit: 828 x 851 km, 71.0° (Epoch: 28 May)

Event Time Altitude Azimuth Distance (km) Brightness Sun altitude
Rises 23:19:37 0° 359° (N) 3,406 6.3 -33.3°
Reaches altitude 10° 23:23:17 10° 23° (NNE) 2,462 5.1 -33.6°
Enters shadow 23:26:00 15° 52° (NE) 2,142 4.4 -33.8°
